Flag for Taiwan Weather past 2 weeks in Kaohsiung, Taiwan

Now
79 °F

Sprinkles. Mostly cloudy.


Feels Like: 83 °F
Forecast: 78 / 88 °F
Wind: 8 mph from East

Location: Kaohsiung International Airport

Current Time: Aug 2, 2014 at 6:34:33 AM

Latest Report: Aug 2, 2014 at 5:00 AM


Visibility: 4 mi

Pressure: 29.56 "Hg

Humidity: 94%

Dew point: 77 °F

Location of KaohsiungLocation

Historic Weather in Kaohsiung — Graph

°F

Kaohsiung temperature yesterday

Maximum temperature yesterday: 91 °F (at 12:30 PM)
Minimum temperature yesterday: 81 °F (at 6:30 AM)
Average temperature yesterday: 86 °F

Past Weeks' High & Low Weather Summary

 TemperatureHumidityPressure
High93 °F (Jul 18, 12:00 PM)100% (Jul 18, 4:30 PM)29.89 "Hg (Jul 18, 4:30 PM)
Low77 °F (Jul 19, 2:55 PM)52% (Jul 29, 11:30 AM)29.18 "Hg (Jul 22, 11:30 PM)
Average85 °F81%29.67 "Hg
* Reported Jul 18 5:00 AM — Aug 2 5:00 AM, Kaohsiung, Weather by CustomWeather, © 2014

Note: Actual official high and low records may vary slightly from our data, if they occured in-between our weather recording intervals... More about our weather records

Advertising

Kaohsiung weather history for previous 24 hours

 ConditionsComfort  
Time TempWeatherWind HumidityBarometerVisibility
5:00 AM
Aug 2
79 °FSprinkles. Mostly cloudy.8 mph94%29.56 "Hg4 mi
4:00 AM79 °FSprinkles. Mostly cloudy.13 mph100%29.56 "Hg4 mi
3:00 AM79 °FSprinkles. Partly cloudy.8 mph94%29.56 "Hg5 mi
2:00 AM81 °FSprinkles. Partly cloudy.12 mph84%29.56 "Hg4 mi
1:00 AM84 °FPartly cloudy.8 mph84%29.59 "Hg6 mi
12:00 AM84 °FSprinkles. Partly cloudy.10 mph89%29.59 "Hg5 mi
11:30 PM
Aug 1
84 °FSprinkles. Overcast.12 mph84%29.59 "Hg3 mi
11:00 PM86 °FPartly cloudy.10 mph79%29.59 "HgN/A
10:30 PM86 °FPassing clouds.10 mph84%29.59 "HgN/A
10:00 PM86 °FPassing clouds.9 mph84%29.59 "HgN/A
9:30 PM86 °FPassing clouds.9 mph84%29.59 "HgN/A
9:00 PM86 °FPartly cloudy.9 mph84%29.59 "HgN/A
8:30 PM86 °FPassing clouds.9 mph79%29.56 "HgN/A
8:00 PM86 °FPassing clouds.8 mph79%29.56 "HgN/A
7:30 PM86 °FPassing clouds.7 mph79%29.53 "HgN/A
7:00 PM86 °FPartly cloudy.8 mph79%29.53 "HgN/A
6:30 PM86 °FPartly sunny.7 mph84%29.53 "HgN/A
6:00 PM86 °FBroken clouds.7 mph79%29.50 "HgN/A
5:30 PM86 °FPartly sunny.9 mph79%29.50 "HgN/A
5:00 PM88 °FBroken clouds.12 mph79%29.53 "HgN/A
4:30 PM88 °FBroken clouds.13 mph84%29.50 "HgN/A
4:00 PM88 °FBroken clouds.12 mph79%29.50 "HgN/A
3:30 PM88 °FBroken clouds.10 mph79%29.53 "HgN/A
3:00 PM88 °FPartly sunny.14 mph84%29.53 "HgN/A
2:30 PM88 °FPartly sunny.13 mph79%29.53 "HgN/A
2:00 PM88 °FPartly sunny.13 mph79%29.53 "HgN/A
1:30 PM88 °FBroken clouds.13 mph79%29.53 "Hg5 mi
1:01 PM90 °FBroken clouds.12 mph79%29.53 "Hg5 mi
12:30 PM91 °FPartly sunny.10 mph71%29.53 "HgN/A
12:00 PM90 °FPartly sunny.10 mph71%29.53 "HgN/A
11:30 AM90 °FPartly sunny.12 mph71%29.53 "HgN/A
11:00 AM90 °FPartly sunny.9 mph79%29.56 "HgN/A
10:30 AM90 °FPartly sunny.10 mph71%29.56 "HgN/A
10:00 AM90 °FPartly sunny.10 mph71%29.56 "HgN/A
9:30 AM88 °FPartly sunny.9 mph70%29.56 "HgN/A
9:00 AM84 °FPartly sunny.6 mph84%29.56 "HgN/A
8:30 AM84 °FPartly sunny.5 mph84%29.56 "HgN/A
8:00 AM81 °FScattered showers. Partly sunny.7 mph89%29.56 "HgN/A
7:30 AM81 °FMostly cloudy.7 mph84%29.53 "HgN/A
7:00 AM81 °FMostly cloudy.7 mph84%29.53 "Hg6 mi
6:30 AM81 °FMostly cloudy.7 mph84%29.56 "Hg6 mi
6:00 AM84 °FThundershowers. Mostly cloudy.6 mph89%29.53 "Hg5 mi
Weather by CustomWeather, © 2014

See weather overviewHow to use our weather pages